Weather History for Altus, OK

Change the Weather History Date:

Tuesday, January 10, 2012

  Actual Average (KLTS) Record (KLTS)
Temperature  
Mean Temperature 47 °F -  
Max Temperature 59 °F 48 °F 69 °F (2000)
Min Temperature 35 °F 26 °F 17 °F (1999)
Degree Days  
Heating Degree Days 18    
Moisture  
Dew Point 30 °F    
Average Humidity 59    
Maximum Humidity 87    
Minimum Humidity 27    
Precipitation  
Precipitation 0.00 in - - ()
Sea Level Pressure  
Sea Level Pressure 29.99 in    
Wind  
Wind Speed 6 mph (North)    
Max Wind Speed 15 mph    
Max Gust Speed 18 mph    
Visibility 10 miles    
Events Rain    
Averages and records for this station are not official NWS values.
T = Trace of Precipitation, MM = Missing Value Source: NWS Daily Summary

Daily Weather History Graph

Daily Weather History Graph

Search for Another Location

Airport:

Trip Planner

Search our weather history database for the weather conditions in past years. The results will help you decide how hot, cold, wet, or windy it might be!

Date:

Astronomy

Jan. 10, 2012 Rise Set
Actual Time 7:45 AM CST 5:44 PM CST
Civil Twilight 7:17 AM CST 6:12 PM CST
Nautical Twilight 6:46 AM CST 6:43 PM CST
Astronomical Twilight 6:15 AM CST 7:13 PM CST
Moon 7:32 PM CST (1/10) 8:28 AM CST (1/10)
Length of Visible Light 10h 54m
Length of Day
9h 59m
Full, 98% of the Moon is Illuminated
Jan 10
Full
Jan 16
Last Quarter
Jan 23
New
Jan 30
First Quarter
Feb 7
Full

Hourly Weather History & Observations

Time (CST) Temp. Windchill Dew Point Humidity Pressure Visibility Wind Dir Wind Speed Gust Speed Precip Events Conditions
12:15 AM 41.0 °F 39.0 °F 32.0 °F 70% 30.13 in 10.0 mi NW 3.5 mph - N/A   Clear
12:35 AM 41.0 °F 37.1 °F 32.0 °F 70% 30.11 in 10.0 mi NW 5.8 mph - N/A   Scattered Clouds
12:55 AM 41.0 °F 38.0 °F 32.0 °F 70% 30.11 in 10.0 mi NW 4.6 mph - N/A   Clear
1:15 AM 41.0 °F 36.4 °F 32.0 °F 70% 30.10 in 10.0 mi NW 6.9 mph - N/A   Clear
1:35 AM 41.0 °F - 32.0 °F 70% 30.10 in 10.0 mi Calm Calm - N/A   Scattered Clouds
1:55 AM 41.0 °F 39.0 °F 32.0 °F 70% 30.10 in 10.0 mi NW 3.5 mph - N/A   Scattered Clouds
2:15 AM 41.0 °F 37.1 °F 32.0 °F 70% 30.10 in 10.0 mi NNW 5.8 mph - N/A   Clear
2:35 AM 41.0 °F 39.0 °F 32.0 °F 70% 30.10 in 10.0 mi NNE 3.5 mph - N/A   Scattered Clouds
2:55 AM 41.0 °F 35.8 °F 32.0 °F 70% 30.09 in 10.0 mi North 8.1 mph - N/A   Scattered Clouds
3:15 AM 41.0 °F 35.8 °F 32.0 °F 70% 30.08 in 10.0 mi NNW 8.1 mph - N/A   Mostly Cloudy
3:35 AM 41.0 °F 37.1 °F 32.0 °F 70% 30.06 in 10.0 mi NNW 5.8 mph - N/A Rain Light Rain
3:55 AM 41.0 °F 37.1 °F 33.8 °F 76% 30.05 in 10.0 mi NNW 5.8 mph - N/A Rain Light Rain
4:15 AM 41.0 °F 39.0 °F 33.8 °F 76% 30.05 in 10.0 mi North 3.5 mph - N/A Rain Light Rain
4:35 AM 41.0 °F 38.0 °F 33.8 °F 76% 30.05 in 10.0 mi North 4.6 mph - N/A   Light Drizzle
4:55 AM 41.0 °F 37.1 °F 33.8 °F 76% 30.06 in 10.0 mi NNE 5.8 mph - N/A   Light Drizzle
5:15 AM 41.0 °F 38.0 °F 33.8 °F 76% 30.05 in 10.0 mi NNW 4.6 mph - N/A   Overcast
5:35 AM 41.0 °F - 33.8 °F 76% 30.05 in 10.0 mi Calm Calm - N/A   Overcast
5:55 AM 41.0 °F 38.0 °F 33.8 °F 76% 30.04 in 10.0 mi WNW 4.6 mph - N/A   Overcast
6:15 AM 41.0 °F 37.1 °F 33.8 °F 76% 30.04 in 10.0 mi NW 5.8 mph - N/A   Overcast
6:35 AM 39.2 °F 32.5 °F 32.0 °F 75% 30.04 in 10.0 mi NW 10.4 mph - N/A   Mostly Cloudy
6:55 AM 37.4 °F 30.8 °F 32.0 °F 81% 30.04 in 10.0 mi NNW 9.2 mph - N/A   Scattered Clouds
7:15 AM 35.6 °F 29.2 °F 32.0 °F 87% 30.03 in 10.0 mi NNW 8.1 mph - N/A   Clear
7:55 AM 35.6 °F 29.9 °F 32.0 °F 87% 30.03 in 10.0 mi NNW 6.9 mph - N/A   Mostly Cloudy
8:15 AM 37.4 °F 32.8 °F 32.0 °F 81% 30.03 in 10.0 mi NNW 5.8 mph - N/A   Overcast
8:35 AM 37.4 °F 32.8 °F 32.0 °F 81% 30.04 in 10.0 mi North 5.8 mph - N/A   Overcast
8:55 AM 37.4 °F 31.4 °F 32.0 °F 81% 30.05 in 10.0 mi North 8.1 mph - N/A   Overcast
9:15 AM 39.2 °F 32.5 °F 32.0 °F 75% 30.06 in 10.0 mi North 10.4 mph - N/A   Mostly Cloudy
9:35 AM 41.0 °F 34.3 °F 32.0 °F 70% 30.06 in 10.0 mi North 11.5 mph - N/A   Scattered Clouds
9:55 AM 41.0 °F 33.9 °F 32.0 °F 70% 30.05 in 10.0 mi NNW 12.7 mph - N/A   Scattered Clouds
10:15 AM 42.8 °F 38.0 °F 32.0 °F 66% 30.05 in 10.0 mi North 8.1 mph - N/A   Scattered Clouds
10:35 AM 44.6 °F 40.2 °F 32.0 °F 61% 30.05 in 10.0 mi North 8.1 mph - N/A   Clear
10:55 AM 44.6 °F 39.2 °F 32.0 °F 61% 30.04 in 10.0 mi NNW 10.4 mph - N/A   Clear
11:15 AM 44.6 °F 38.8 °F 32.0 °F 61% 30.04 in 10.0 mi NNW 11.5 mph - N/A   Clear
11:35 AM 46.4 °F 40.7 °F 32.0 °F 57% 30.03 in 10.0 mi North 12.7 mph - N/A   Clear
11:55 AM 50.0 °F - 32.0 °F 50% 30.01 in 10.0 mi NNW 15.0 mph - N/A   Clear
12:15 PM 50.0 °F - 32.0 °F 50% 29.99 in 10.0 mi North 13.8 mph - N/A   Clear
12:35 PM 50.0 °F - 32.0 °F 50% 29.97 in 10.0 mi NNW 11.5 mph - N/A   Clear
12:55 PM 53.6 °F - 32.0 °F 44% 29.96 in 10.0 mi North 11.5 mph - N/A   Clear
1:15 PM 53.6 °F - 32.0 °F 44% 29.94 in 10.0 mi North 11.5 mph - N/A   Clear
1:35 PM 55.4 °F - 28.4 °F 36% 29.92 in 10.0 mi NNE 13.8 mph - N/A   Clear
1:55 PM 57.2 °F - 26.6 °F 31% 29.91 in 10.0 mi North 12.7 mph - N/A   Clear
2:15 PM 59.0 °F - 26.6 °F 29% 29.90 in 10.0 mi North 13.8 mph 18.4 mph N/A   Clear
2:55 PM 59.0 °F - 26.6 °F 29% 29.88 in 10.0 mi North 11.5 mph 16.1 mph N/A   Clear
3:15 PM 59.0 °F - 26.6 °F 29% 29.88 in 10.0 mi North 6.9 mph - N/A   Clear
3:35 PM 59.0 °F - 26.6 °F 29% 29.88 in 10.0 mi NNE 10.4 mph - N/A   Clear
3:55 PM 59.0 °F - 24.8 °F 27% 29.87 in 10.0 mi North 8.1 mph - N/A   Clear
4:15 PM 59.0 °F - 26.6 °F 29% 29.87 in 10.0 mi North 5.8 mph - N/A   Clear
4:35 PM 59.0 °F - 24.8 °F 27% 29.87 in 10.0 mi NNW 6.9 mph - N/A   Clear
5:15 PM 57.2 °F - 23.0 °F 27% 29.86 in 10.0 mi Calm Calm - N/A   Clear
5:35 PM 55.4 °F - 23.0 °F 29% 29.86 in 10.0 mi Calm Calm - N/A   Clear
5:55 PM 55.4 °F - 23.0 °F 29% 29.86 in 10.0 mi Calm Calm - N/A   Clear
6:15 PM 50.0 °F - 26.6 °F 40% 29.87 in 10.0 mi SE 3.5 mph - N/A   Clear
6:35 PM 48.2 °F - 28.4 °F 46% 29.87 in 10.0 mi SE 4.6 mph - N/A   Clear
6:55 PM 46.4 °F 43.5 °F 28.4 °F 50% 29.86 in 10.0 mi SE 5.8 mph - N/A   Clear
7:15 PM 46.4 °F 44.3 °F 28.4 °F 50% 29.87 in 10.0 mi SSE 4.6 mph - N/A   Clear
7:35 PM 46.4 °F 43.5 °F 28.4 °F 50% 29.86 in 10.0 mi SE 5.8 mph - N/A   Clear
8:15 PM 44.6 °F 42.2 °F 28.4 °F 53% 29.85 in 10.0 mi SSE 4.6 mph - N/A   Clear
8:35 PM 44.6 °F 43.1 °F 26.6 °F 49% 29.85 in 10.0 mi South 3.5 mph - N/A   Clear
8:55 PM 42.8 °F - 26.6 °F 53% 29.85 in 10.0 mi Calm Calm - N/A   Clear
9:15 PM 42.8 °F 41.1 °F 26.6 °F 53% 29.85 in 10.0 mi SSE 3.5 mph - N/A   Clear
9:35 PM 42.8 °F 41.1 °F 26.6 °F 53% 29.85 in 10.0 mi South 3.5 mph - N/A   Clear
9:55 PM 42.8 °F 41.1 °F 26.6 °F 53% 29.85 in 10.0 mi South 3.5 mph - N/A   Clear
10:15 PM 42.8 °F 40.1 °F 26.6 °F 53% 29.85 in 10.0 mi South 4.6 mph - N/A   Clear
10:35 PM 41.0 °F 38.0 °F 28.4 °F 61% 29.84 in 10.0 mi South 4.6 mph - N/A   Clear
11:15 PM 41.0 °F 38.0 °F 28.4 °F 61% 29.83 in 10.0 mi SSW 4.6 mph - N/A   Clear
11:35 PM 41.0 °F 39.0 °F 28.4 °F 61% 29.82 in 10.0 mi South 3.5 mph - N/A   Clear
11:55 PM 39.2 °F 35.0 °F 28.4 °F 65% 29.81 in 10.0 mi South 5.8 mph - N/A   Clear